OPS 4682 DEB, 19185

Orbit data source: Space-Track

OPS 4682 DEB, 19185 is space debris in LEO originally from a launch on Sat, 03 Apr 1965 UTC launched from the Air Force Western Test Range (AFWTR). Debris objects in space refer to the collection of defunct objects orbiting the Earth. Examples of debris include non-operational satellites, rocket bodies, and fragments generated from explosions, collisions, or faulty payload assembly.

Loading next visibility...
Identifier
19185, 1965-027AR
Orbit
LEO
Country
Flag of USUS
Related business
Manufacturer
Unknown
Mission
Spacecraft
Bus & Motor
Unknown
Mass
Unknown
Launch date (UTC)
1965-04-03 (61 years ago)
Launch vehicle
Unknown
Launch site
Air Force Western Test Range (AFWTR)
Object type
Payload
Rocket body
Debris
Shape & HBR
Unknown shape, 0.1 m
Radar Cross Section
Medium (>0.1 m² and <1 m²)

Expand to show TLE details & history
Last TLE update: 19 hours ago

TLE from 19 hours ago
0 OPS 4682 DEB
1 19185U 65027AR  26177.28105594 -.00000034  00000-0 -14340-3 0  9995
2 19185  90.2447   4.6050 0036838  51.7722 130.8190 12.97782835951288
Epoch: 2026-06-26T06:44Z
TLE epoch observation values (Epoch: 2026-06-26T06:44:43.233Z)
Latitude
-3.03891°
Longitude
169.00012°
Altitude
1,292.594 km
Speed
7.201 km/s
True Right ascension
12h 18m 22s
True Declination
-3° 01' 19"
Sunlit
Object was in daylight at epoch
Visualization orbit readout
Latitude
Unknown
Longitude
Unknown
Altitude
Unknown
Speed
Unknown
Apparent Right ascension
Unknown
Apparent Declination
Unknown
Sunlit
N/A
Visualization observer readout
Local Sidereal Time
13:05:29
Azimuth
Unknown
Elevation
Unknown
Doppler factor
Unknown
Orbital elements
Apogee altitude
1,296.083 km
Perigee altitude
1,239.75 km
Semi-major axis
7,646.053 km
Eccentricity
0.00368
Inclination
90.2447°
RAAN
4.605°
Arg. of periapsis
51.7722°
True anomaly
131.1375°
Mean anomaly
130.819°
Eccentric anomaly
130.97835°
Mean motion
3.24629 °/min
Orbital period
110.9 mins
BSTAR
-0.0001434
Loading maneuver chart data...
Computing Atmospheric mass density...
Loading historical data...
Loading historical data...
Loading historical data...
Loading historical data...
Loading historical data...
Loading historical data...
Loading historical data...

Documentation

Showing up to 5 results
|